This demonstration page uses our WeatherBlox Daily Observations layout. Learn more.

Left ArrowRight Arrow

39.01783, -85.05884

Hourly Observations for June 6, 2017

Temp ( °F °C ) Dew Point ( °F °C ) Humidity (%) Winds ( mph kmh ) Pressure ( in mb ) Visibility ( mi km ) Precip ( " mm )
12:52 am 00:52 Partly Cloudy 68 20 64 17.8 87 87 NE 8 13 29.82 1010 10 16 N/A
1:52 am 01:52 Partly Cloudy 66 18.9 58 14.4 75 75 NE 14 22 29.83 1010 10 16 N/A
2:52 am 02:52 Partly Cloudy 64 17.8 54 12.2 70 70 NNE 10 17 29.83 1010 10 16 N/A
3:52 am 03:52 Partly Cloudy 63 17.2 54 12.2 73 73 NE 14 22 29.84 1011 10 16 N/A
4:52 am 04:52 Mostly Clear 61 16.1 53 11.7 75 75 NNE 12 19 29.85 1011 10 16 N/A
5:52 am 05:52 Mostly Clear 60 15.6 53 11.7 78 78 NNE 10 17 29.86 1011 10 16 N/A
6:52 am 06:52 Mostly Sunny 59 15 53 11.7 81 81 NNE 10 17 29.89 1012 10 16 N/A
7:52 am 07:52 Mostly Sunny 61 16.1 52 11.1 72 72 NE 10 17 29.91 1013 10 16 N/A
8:52 am 08:52 Sunny 64 17.8 53 11.7 68 68 NE 8 13 29.92 1013 10 16 N/A
9:52 am 09:52 Sunny 66 18.9 52 11.1 61 61 ENE 13 20 29.92 1013 10 16 N/A
10:52 am 10:52 Sunny 69 20.6 52 11.1 55 55 N 14 22 29.92 1013 10 16 N/A
11:52 am 11:52 Mostly Sunny 69 20.6 50 10 51 51 N 17 28 29.91 1013 10 16 N/A
12:52 pm 12:52 Mostly Sunny 72 22.2 48 8.9 43 43 NNW 12 19 29.91 1013 10 16 N/A
1:52 pm 13:52 Mostly Sunny 73 22.8 48 8.9 41 41 N 13 20 29.90 1012 10 16 N/A
2:52 pm 14:52 Mostly Sunny 76 24.4 49 9.4 39 39 N 14 22 29.88 1012 10 16 N/A
3:52 pm 15:52 Partly Cloudy 76 24.4 47 8.3 36 36 N 12 19 29.88 1012 10 16 N/A
4:52 pm 16:52 Partly Cloudy 77 25 48 8.9 36 36 N 13 20 29.87 1012 10 16 N/A
5:52 pm 17:52 Partly Cloudy 76 24.4 46 7.8 35 35 N 12 19 29.88 1012 10 16 N/A
6:52 pm 18:52 Partly Cloudy 76 24.4 46 7.8 35 35 N 14 22 29.87 1012 10 16 N/A
7:52 pm 19:52 Partly Cloudy 74 23.3 47 8.3 38 38 NNE 10 17 29.88 1012 10 16 N/A
8:52 pm 20:52 Mostly Sunny 68 20 46 7.8 45 45 N 10 17 29.89 1012 10 16 N/A
9:52 pm 21:52 Mostly Clear 71 21.7 46 7.8 41 41 NNE 15 24 29.91 1013 10 16 N/A
10:52 pm 22:52 Mostly Cloudy 69 20.6 48 8.9 47 47 E 10 17 29.93 1014 10 16 N/A
11:52 pm 23:52 Mostly Clear 67 19.4 49 9.4 53 53 NE 7 11 29.94 1014 10 16 N/A

Powered by AerisWeather